Regional Weather Roundup
Issued by NWS

Home | Current Version | Previous Version | Graphics & Text | Print | Product List | Glossary On
Versions: 1 2 3 4 5 6 7 8 9 10 11 12 13 14 15 16 17 18 19 20 21 22 23 24 25 26 27 28 29 30 31 32 33 34 35 36 37 38 39 40 41 42 43 44 45 46 47 48 49 50
000
ASUS43 KLMK 251410
RWRKY
KENTUCKY REGIONAL WEATHER ROUNDUP
NATIONAL WEATHER SERVICE LOUISVILLE KY
1000 AM EDT SUN SEP 25 2016

NOTE "FAIR" INDICATES FEW OR NO CLOUDS BELOW 12,000 FEET
WITH NO SIGNIFICANT WEATHER AND/OR OBSTRUCTIONS TO VISIBILITY.

KYZ001>023-026-027-061>063-070>075-251500-
WESTERN AND SOUTH CENTRAL KENTUCKY

CITY           SKY/WX    TMP DP  RH WIND       PRES   REMARKS
PADUCAH        SUNNY     78  69  73 SE3       30.07S
HENDERSON      SUNNY     75  66  73 S3        30.08S
OWENSBORO      SUNNY    N/A N/A N/A SE9       30.10S HAZE
HOPKINSVILLE   SUNNY     75  66  74 SE3       30.09S
BOWLING GREEN  SUNNY     76  69  79 CALM      30.10S
GLASGOW        SUNNY     75  69  81 CALM      30.11S
$$

KYZ024-025-028>034-038-045-046-053-251500-
NORTH CENTRAL KENTUCKY

CITY           SKY/WX    TMP DP  RH WIND       PRES   REMARKS
LOUISVILLE/SDF SUNNY     75  65  70 VRB3      30.12R
LOUISVILLE/LOU SUNNY     75  65  70 E5        30.13R
FORT KNOX      SUNNY     74  67  78 E6        30.10S
$$

KYZ035>037-039>044-047>052-055>060-089>105-251500-
NORTHEAST KENTUCKY

CITY           SKY/WX    TMP DP  RH WIND       PRES   REMARKS
LEXINGTON      SUNNY     76  64  66 E6        30.14S
COVINGTON      SUNNY     69  61  75 SE6       30.14F
FRANKFORT      MOSUNNY   73  64  73 E6        30.13R
$$

KYZ054-064>069-076>088-106>120-251500-
SOUTHEAST KENTUCKY

CITY           SKY/WX    TMP DP  RH WIND       PRES   REMARKS
JACKSON        SUNNY     71  64  78 VRB3      30.15S
LONDON         SUNNY     73  65  75 CALM      30.14S
SOMERSET       SUNNY     72  68  88 CALM      30.14S
MIDDLESBORO    CLOUDY    64  64 100 CALM      30.15S FOG
MONTICELLO     SUNNY     74  68  81 VRB7      30.14S
$$




USA.gov is the U.S. government's official web portal to all federal, state and local government web resources and services.